Regional Weather Roundup
Issued by NWS

Home | Current Version | Previous Version | Text Only | Print | Product List | Glossary Off
Versions: 1 2 3 4 5 6 7 8 9 10 11 12 13 14 15 16 17 18 19 20 21 22 23 24 25 26 27 28 29 30 31 32 33 34 35 36 37 38 39 40 41 42 43 44 45 46 47 48 49 50

000
ASUS43 KOAX 251202
RWRNE

WEATHER ROUNDUP FOR NEBRASKA
NATIONAL WEATHER SERVICE OMAHA NE
700 AM CDT MON MAY 25 2015

NOTES: SATELLITE DATA IS BEING USED TO AUGMENT CLOUD COVER ABOVE
       12000 FEET.
       "FAIR" INDICATES FEW OR NO CLOUDS BELOW 12,000 FEET WITH NO
       SIGNIFICANT WEATHER AND/OR OBSTRUCTIONS TO VISIBILITY.

  * THESE STATIONS DO NOT REPORT WEATHER SUCH AS RAIN...SNOW OR FOG.

NEZ001>004-019>022-054>056-251300-
NEBRASKA PANHANDLE

CITY           SKY/WX    TMP DP  RH WIND       PRES   REMARKS
SCOTTSBLUFF    LGT RAIN  51  49  92 NW9       29.83R
6HR MIN TEMP:  51; 6HR MAX TEMP:  54; 6HR PCP:  0.05;

ALLIANCE       LGT RAIN  50  49  96 NW7       29.80S
6HR MIN TEMP:  50; 6HR MAX TEMP:  51; 6HR PCP:  0.13;

CHADRON        LGT RAIN  52  50  93 N10       29.81S FOG
6HR MIN TEMP:  51; 6HR MAX TEMP:  54; 6HR PCP:  0.11;

SIDNEY         LGT RAIN  50  49  96 N5        29.83R
6HR MIN TEMP:  49; 6HR MAX TEMP:  51; 6HR PCP:  0.02;

$$

NEZ057>060-069>072-079>082-251300-
SOUTHWEST NEBRASKA

CITY           SKY/WX    TMP DP  RH WIND       PRES   REMARKS
NORTH PLATTE   LGT RAIN  53  51  93 SW5       29.79R
6HR MIN TEMP:  50; 6HR MAX TEMP:  53; 6HR PCP:  0.01;

IMPERIAL       CLOUDY    51  49  92 W3        29.79S
6HR MIN TEMP:  51; 6HR MAX TEMP:  52;

LEXINGTON      CLOUDY    54  52  93 SW6       29.78R
MCCOOK         MOCLDY    51  50  96 SE3       29.79R FOG
6HR MIN TEMP:  51; 6HR MAX TEMP:  54; 6HR PCP:  0.09;

$$

NEZ005>010-023>029-035>040-094-251300-
NORTH CENTRAL NEBRASKA

CITY           SKY/WX    TMP DP  RH WIND       PRES   REMARKS
VALENTINE      CLOUDY    56  55  97 NE7       29.77R
6HR MIN TEMP:  56; 6HR MAX TEMP:  58; 6HR PCP: TRACE;

AINSWORTH      FOG       56  56 100 E5        29.77R VSB<1/4
BROKEN BOW     CLOUDY    52  50  93 W6        29.76R
6HR MIN TEMP:  50; 6HR MAX TEMP:  59; 6HR PCP: TRACE;

ORD            FOG       57  57 100 S8        29.75R VSB 1/4
6HR MIN TEMP:  55; 6HR MAX TEMP:  58;

$$

NEZ041-046>049-061>064-073>077-083>087-251300-
SOUTH CENTRAL NEBRASKA

CITY           SKY/WX    TMP DP  RH WIND       PRES   REMARKS
GRAND ISLAND   CLOUDY    56  54  93 S8        29.78R
6HR MIN TEMP:  55; 6HR MAX TEMP:  61;

HASTINGS       CLOUDY    56  52  86 W9        29.80R
6HR MIN TEMP:  55; 6HR MAX TEMP:  61; 6HR PCP: TRACE;

KEARNEY *      MOCLDY    54  50  87 SW10      29.79R
$$

NEZ011>018-030>034-042>045-251300-
NORTHEAST NEBRASKA

CITY           SKY/WX    TMP DP  RH WIND       PRES   REMARKS
NORFOLK        FOG       57  57 100 E3        29.75R VSB<1/4
6HR MIN TEMP:  55; 6HR MAX TEMP:  59; 6HR PCP: TRACE;

BLAIR          MOCLDY    61  59  93 S8        29.79R FOG
COLUMBUS *     CLOUDY    59  54  82 S8        29.80R
FREMONT        CLOUDY    62  61  96 S13       29.79R
TEKAMAH        CLOUDY    63  61  93 S8        29.77R
6HR MIN TEMP:  61; 6HR MAX TEMP:  63; 6HR PCP:  0.01;

$$

NEZ050>053-065>068-078-088>093-251300-
SOUTHEAST NEBRASKA

CITY           SKY/WX    TMP DP  RH WIND       PRES   REMARKS
LINCOLN        CLOUDY    61  57  87 S10       29.80R
6HR MIN TEMP:  59; 6HR MAX TEMP:  62;

OMAHA EPPLEY   CLOUDY    62  61  96 S10       29.79R FOG
6HR MIN TEMP:  61; 6HR MAX TEMP:  66;

FALLS CITY     CLOUDY    61  58  90 S13       29.89R
6HR MIN TEMP:  60; 6HR MAX TEMP:  62; 6HR PCP:  0.04;

PLATTSMOUTH    MOCLDY    62  59  92 S14       29.82R
$$

NEZ044-045-051>053-067-251300-
OMAHA AREA

CITY           SKY/WX    TMP DP  RH WIND       PRES   REMARKS
OMAHA EPPLEY   CLOUDY    62  61  96 S10       29.79R FOG
6HR MIN TEMP:  61; 6HR MAX TEMP:  66;

BLAIR          MOCLDY    61  59  93 S8        29.79R FOG
FREMONT        CLOUDY    62  61  96 S13       29.79R
OFFUTT AFB     MOCLDY    62  62  99 S6        29.81R
PLATTSMOUTH    MOCLDY    62  59  92 S14       29.82R
$$



USA.gov is the U.S. government's official web portal to all federal, state and local government web resources and services.